Location: Newark
(15.4608°S, 41.1635°W)
Time: 15:06:28
(UTC+00:00)

Vanguard 1 - All Passes

Search period start: 27 February 2021 00:00
Search period end: 09 March 2021 00:00
Orbit: 649 x 3833 km, 34.2° (Epoch: 26 February)

Date Brightness Start Highest point End Pass type
(mag) Time Alt. Az. Time Alt. Az. Time Alt. Az.
27 Feb - 00:00:20 10° SW 00:19:06 59° SSE 00:29:14 10° E visible
27 Feb - 02:29:09 10° WSW 02:41:51 50° NW 02:48:47 10° NNE visible
27 Feb - 14:32:45 10° NNW 14:45:53 47° NE 15:06:28 10° ESE daylight
27 Feb - 16:53:15 10° WNW 17:11:24 79° SSW 17:35:32 10° SE daylight
27 Feb - 19:20:05 10° W 19:41:49 49° SSW 20:01:57 10° ESE daylight
27 Feb - 21:51:51 10° WSW 22:13:23 44° S 22:27:35 10° ESE visible
28 Feb - 00:22:13 10° SW 00:40:46 72° SSE 00:50:28 10° ENE visible
28 Feb - 02:51:31 10° WSW 03:02:21 34° NW 03:08:49 10° NNE visible
28 Feb - 12:38:43 10° NNE 12:44:41 14° NE 12:52:11 10° ENE daylight
28 Feb - 14:53:00 10° NW 15:06:46 61° NE 15:28:53 10° ESE daylight
28 Feb - 17:14:46 10° WNW 17:33:22 68° SSW 17:57:11 10° SE daylight
28 Feb - 19:42:48 10° WSW 20:04:39 46° S 20:23:52 10° ESE daylight
28 Feb - 22:14:20 10° WSW 22:35:54 48° SSE 22:49:26 10° E visible
01 Mar - 00:44:03 10° WSW 01:02:08 89° SE 01:11:26 10° ENE visible
01 Mar - 03:14:36 10° W 03:22:43 22° NW 03:28:15 10° N visible
01 Mar - 12:56:43 10° N 13:05:22 23° NE 13:17:50 10° E daylight
01 Mar - 15:13:33 10° NW 15:27:51 76° NE 15:50:58 10° ESE daylight
01 Mar - 17:36:33 10° W 17:55:37 59° SSW 18:18:54 10° SE daylight
01 Mar - 20:05:34 10° WSW 20:27:36 44° S 20:45:55 10° ESE daylight
01 Mar - 22:36:33 10° SW 22:58:11 55° SSE 23:11:08 10° E visible
02 Mar - 01:05:58 10° WSW 01:23:11 71° NW 01:32:08 10° NE visible
02 Mar - 03:39:20 10° WNW 03:43:07 12° NW 03:46:15 10° NNW night (unlit)
02 Mar - 13:15:58 10° NNW 13:25:56 33° NE 13:41:45 10° ESE daylight
02 Mar - 15:34:24 10° NW 15:49:12 90° SW 16:12:51 10° ESE daylight
02 Mar - 17:58:39 10° W 18:18:09 53° SSW 18:40:44 10° ESE daylight
02 Mar - 20:28:15 10° WSW 20:50:32 45° S 21:08:03 10° ESE daylight
02 Mar - 22:58:34 10° SW 23:20:13 64° SSE 23:32:38 10° ENE visible
03 Mar - 01:28:06 10° WSW 01:43:57 53° NW 01:52:32 10° NNE visible
03 Mar - 13:35:47 10° NNW 13:46:32 45° NE 14:04:45 10° ESE daylight
03 Mar - 15:55:31 10° WNW 16:10:50 77° SSW 16:34:38 10° SE daylight
03 Mar - 18:20:56 10° W 18:40:54 48° SSW 19:02:46 10° ESE daylight
03 Mar - 20:50:46 10° WSW 21:13:21 47° S 21:30:10 10° E visible
03 Mar - 23:20:28 10° SW 23:41:58 76° SSE 23:53:53 10° ENE visible
04 Mar - 01:50:36 10° WSW 02:04:31 38° NW 02:12:36 10° NNE visible
04 Mar - 11:43:40 10° NE 11:46:27 11° NE 11:49:34 10° ENE daylight
04 Mar - 13:55:59 10° NW 14:07:16 60° NE 14:27:13 10° ESE daylight
04 Mar - 16:16:55 10° WNW 16:32:45 66° SSW 16:56:27 10° SE daylight
04 Mar - 18:43:22 10° WSW 19:03:50 46° S 19:24:58 10° ESE daylight
04 Mar - 21:13:03 10° WSW 21:36:00 52° SSE 21:52:10 10° E visible
04 Mar - 23:42:20 10° WSW 00:03:24 88° NW 00:14:53 10° NE visible
05 Mar - 02:13:46 10° W 02:24:56 26° NW 02:32:10 10° N visible
05 Mar - 12:00:27 10° N 12:06:58 19° NE 12:16:14 10° E daylight
05 Mar - 14:16:31 10° NW 14:28:14 76° NE 14:49:20 10° ESE daylight
05 Mar - 16:38:36 10° W 16:54:59 57° SSW 17:18:21 10° SE daylight
05 Mar - 19:05:50 10° WSW 19:26:51 45° S 19:47:19 10° ESE daylight
05 Mar - 21:35:07 10° SW 21:58:24 58° SSE 22:13:59 10° E visible
06 Mar - 00:04:19 10° WSW 00:24:33 71° NW 00:35:36 10° NE visible
06 Mar - 02:38:09 10° W 02:45:23 16° NW 02:50:49 10° NNW visible
06 Mar - 12:19:29 10° N 12:27:25 29° NE 12:40:09 10° ESE daylight
06 Mar - 14:37:18 10° WNW 14:49:28 88° SW 15:11:16 10° ESE daylight
06 Mar - 17:00:31 10° W 17:17:28 51° SSW 17:40:25 10° ESE daylight
06 Mar - 19:28:13 10° WSW 19:49:52 46° S 20:09:42 10° ESE daylight
06 Mar - 21:57:02 10° SW 22:20:31 68° SSE 22:35:34 10° ENE visible
07 Mar - 00:26:30 10° WSW 00:45:24 55° NW 00:56:02 10° NNE visible
07 Mar - 12:39:14 10° NNW 12:47:54 42° NE 13:03:08 10° ESE daylight
07 Mar - 14:58:23 10° WNW 15:11:01 74° SSW 15:33:08 10° SE daylight
07 Mar - 17:22:36 10° W 17:40:12 47° S 18:02:43 10° ESE daylight
07 Mar - 19:50:27 10° WSW 20:12:45 49° SSE 20:32:04 10° E daylight
07 Mar - 22:18:51 10° WSW 22:42:22 79° SSE 22:56:53 10° ENE visible
08 Mar - 00:49:06 10° WSW 01:06:05 41° NW 01:16:08 10° NNE visible
08 Mar - 12:59:24 10° NW 13:08:32 58° NE 13:25:33 10° ESE daylight
08 Mar - 15:19:43 10° WNW 15:32:52 62° SSW 15:55:03 10° SE daylight
08 Mar - 17:44:47 10° WSW 18:03:05 45° S 18:25:13 10° ESE daylight
08 Mar - 20:12:29 10° WSW 20:35:27 54° SSE 20:54:16 10° E daylight
08 Mar - 22:40:41 10° WSW 23:03:54 87° NW 23:17:55 10° NE visible
